Location: Kermapucano
(48.0667°N, 3.3000°W)
Time: 20:50:47
(UTC+00:00)

USA 307 - Pass Details

Date: 29 November 2020
Orbit: 565 x 582 km, 54.0° (Epoch: 25 January)

Event Time Altitude Azimuth Distance (km) Brightness Sun altitude
Exits shadow 06:43:15 12° 303° (WNW) 1,779 4.8 -9.3°
Maximum altitude 06:47:11 54° 19° (NNE) 713 3.4 -8.7°
Drops below altitude 10° 06:51:26 10° 98° (E) 1,900 7.0 -8.0°
Sets 06:53:44 0° 103° (ESE) 2,798 8.5 -7.7°
